Theta_e
312 310 310 307 306 308 309 308 309 309 307 305 305 305 305 305 305 304 303 303 304 304 302 302 305 306 306 307 306 303 302 300 299 298 297 295 293 291 291 291 291 292 290 287 286 288 289 289 289 289 289 289 289 289 289 288 288 288 288 287 287 287 286 286 286 285 285 285 285 284 282 281 281 281 280 280 280 279 279 279 278 278 277 277 277 277 277
311 308 307 306 304 305 306 305 305 305 304 303 303 304 303 302 302 302 302 302 302 301 301 302 304 305 304 305 303 301 301 301 301 300 298 295 292 290 291 291 291 290 288 286 287 288 288 289 289 289 289 289 289 289 289 288 288 288 288 287 287 287 286 286 285 285 285 285 284 283 282 281 280 280 279 279 279 278 278 277 277 277 276 276 276 276 276
309 305 304 305 304 304 304 303 303 301 301 302 302 302 302 302 302 302 301 302 302 301 302 303 304 303 301 301 302 303 304 304 303 301 298 295 292 291 291 290 290 289 286 286 287 287 288 289 289 289 289 289 289 289 289 289 288 288 288 288 287 286 286 285 285 285 285 285 284 282 281 280 279 279 278 278 277 277 277 276 276 276 275 275 275 275 275
308 301 301 303 302 302 302 302 301 299 299 300 300 300 301 301 301 300 300 301 301 301 302 303 303 302 301 301 302 303 304 304 303 303 301 297 293 292 291 291 291 290 287 285 286 287 289 290 290 289 290 290 289 290 289 289 288 288 288 287 287 286 286 285 285 284 284 284 283 281 280 279 279 278 277 277 276 276 276 275 275 275 274 274 274 274 273
305 299 300 303 302 302 302 300 299 298 298 298 298 299 300 300 299 300 301 300 300 302 303 302 302 303 302 302 301 300 300 300 301 302 302 299 296 294 293 293 293 291 287 286 287 289 290 290 290 290 290 290 290 290 289 289 288 288 287 287 286 285 285 284 284 284 283 282 281 280 279 278 277 277 276 276 275 275 275 274 274 274 273 273 272 272 272
304 299 299 302 301 301 301 299 300 300 298 298 298 298 299 299 299 301 301 300 301 302 303 302 302 302 301 300 299 297 298 300 299 298 298 299 299 296 293 293 291 288 287 288 289 290 290 290 290 290 290 289 289 289 289 288 288 287 287 286 285 284 284 283 283 282 281 280 279 278 277 277 276 275 275 275 274 274 274 273 273 272 272 271 271 270 270
302 298 298 301 301 300 299 298 300 300 298 298 299 298 298 298 298 299 299 300 300 301 301 302 301 298 296 295 294 294 296 298 298 296 296 297 297 295 295 293 289 286 288 289 289 289 290 290 290 289 289 288 288 288 288 287 287 286 285 285 284 283 283 281 280 280 279 278 277 276 275 275 274 274 274 273 273 272 272 271 271 270 270 269 269 268 268
300 298 299 301 300 298 298 297 297 296 296 297 297 298 298 298 297 297 298 299 298 299 299 298 295 293 292 291 292 294 295 295 294 294 295 295 293 292 292 291 288 288 289 290 290 290 290 289 289 288 288 288 287 287 287 286 286 285 284 284 283 282 280 279 278 278 277 276 275 274 274 273 273 273 272 271 270 270 270 270 269 269 268 268 267 267 267
300 300 300 300 298 297 297 297 295 295 297 299 299 298 299 299 298 297 298 299 299 297 295 292 291 292 291 290 292 294 294 294 293 290 290 292 291 289 289 289 289 290 290 290 290 290 289 289 288 288 287 287 287 286 285 285 284 284 283 282 281 279 278 277 276 276 275 274 273 273 272 272 271 271 270 269 269 268 268 268 267 267 266 266 266 266 265
299 299 298 298 297 296 296 296 296 296 297 300 301 298 298 300 299 298 299 300 300 297 293 290 291 292 291 292 294 294 293 294 294 289 287 288 289 289 289 290 290 290 290 290 290 289 288 288 287 286 286 286 285 285 284 283 283 282 281 279 278 277 276 275 275 274 273 272 272 272 271 271 270 269 268 268 268 267 266 266 266 265 265 265 265 264 264
299 298 298 298 296 296 297 298 297 294 294 299 300 297 298 300 298 296 297 298 300 300 294 291 292 292 292 294 295 294 293 293 292 291 289 288 289 290 290 290 290 290 289 289 288 288 287 286 285 284 284 284 283 283 282 282 281 279 278 277 276 275 275 274 273 272 272 271 271 271 270 269 268 267 267 267 267 266 265 265 264 264 264 264 264 264 264
298 297 297 297 296 297 298 298 295 292 293 297 299 297 297 299 296 295 296 297 300 301 295 292 292 293 293 294 294 293 292 289 287 289 289 288 289 290 289 289 289 288 288 288 287 286 285 284 283 282 282 282 282 281 280 279 278 277 275 275 274 274 273 272 271 271 271 271 270 270 269 268 267 266 266 266 266 265 264 264 264 263 263 263 263 263 263
298 298 297 296 296 298 298 296 295 293 294 296 296 296 297 297 295 295 297 299 300 299 294 291 292 293 293 293 292 292 291 290 288 287 288 288 289 289 288 288 288 287 287 286 285 284 283 282 281 280 280 280 280 279 278 277 276 275 274 273 273 272 272 271 270 270 270 269 269 268 267 267 266 265 265 265 265 264 264 263 263 263 263 263 263 263 263
297 297 298 297 297 299 299 295 292 292 294 295 296 297 298 298 297 294 294 297 298 296 293 291 291 291 291 290 291 291 292 292 290 287 286 287 287 287 287 287 287 287 286 284 283 282 281 280 279 279 279 279 278 277 276 275 274 273 272 272 272 271 271 270 269 269 269 268 267 267 266 265 265 265 265 265 264 264 263 263 262 262 262 262 262 262 262
297 297 297 296 296 296 295 293 292 292 295 299 300 298 295 296 297 296 294 294 294 293 292 290 289 290 290 290 290 290 290 290 288 286 286 286 286 287 287 286 286 286 284 282 281 280 279 279 278 278 278 277 276 276 275 274 273 272 271 271 271 270 269 269 269 269 268 267 266 265 265 264 264 264 264 264 263 263 263 262 262 262 262 262 262 262 262
296 296 296 296 297 295 293 294 295 294 295 298 301 299 296 294 295 297 296 294 291 290 292 292 289 289 289 289 289 289 289 288 287 285 284 285 286 286 286 285 285 285 283 281 280 279 278 278 277 277 276 276 275 275 274 272 271 270 270 270 270 269 268 268 268 268 266 265 265 264 264 264 263 263 263 263 263 262 262 262 262 261 261 262 261 261 262
295 296 298 298 297 294 292 294 296 296 294 295 296 297 297 296 295 294 294 295 292 290 290 292 291 290 289 289 289 289 288 288 287 285 284 285 285 285 285 285 284 283 282 281 279 277 277 276 276 275 275 274 274 272 271 270 270 269 269 269 268 268 267 267 267 266 265 264 264 264 263 263 263 263 263 262 262 262 262 261 261 261 261 261 261 261 262
293 293 296 295 293 292 292 292 294 295 294 294 294 295 295 295 295 293 292 293 294 291 290 290 291 290 290 289 289 289 288 288 286 283 283 284 284 284 283 283 282 282 281 279 277 276 275 275 274 274 273 272 272 271 270 270 269 269 268 268 267 267 267 266 266 265 264 264 263 263 263 263 262 262 262 262 262 262 261 261 261 261 261 261 261 262 262
293 292 293 292 291 293 293 291 292 292 292 292 292 292 293 293 293 293 292 292 292 291 290 290 291 291 290 290 290 289 288 288 286 282 281 283 283 283 283 282 280 279 278 277 276 275 274 273 272 271 271 270 270 270 269 269 268 268 267 267 266 266 266 265 265 264 263 263 263 262 262 262 262 262 262 262 261 261 261 261 261 261 261 262 262 263 263
291 292 292 291 291 292 291 290 291 291 291 291 290 290 291 291 291 291 290 289 290 291 290 289 290 290 289 289 289 288 287 287 285 281 281 282 282 282 281 280 278 277 277 276 275 274 273 272 271 270 270 269 269 269 269 268 267 267 266 266 265 265 265 264 264 263 263 262 262 262 262 262 262 262 262 262 261 261 261 261 261 262 262 263 263 264 265
291 291 291 290 290 291 290 290 290 289 290 290 290 289 289 289 289 290 288 286 287 288 289 289 289 289 289 288 288 288 288 287 284 281 282 282 281 280 279 278 277 276 276 275 274 273 271 271 269 269 269 269 269 269 268 267 266 266 265 265 264 264 264 263 263 262 262 262 262 261 261 261 261 261 262 261 261 262 262 262 263 264 265 266 266 266 267
292 291 291 291 291 291 291 290 290 290 289 289 288 289 289 288 288 289 289 287 286 285 286 287 287 289 289 287 286 287 287 284 282 282 282 280 279 278 277 276 275 275 274 273 272 271 270 269 268 268 269 269 269 268 267 266 265 265 265 264 263 263 263 263 262 262 261 261 261 261 261 261 261 261 261 262 262 262 263 264 265 266 266 267 267 268 268
291 291 291 291 290 290 291 291 290 290 290 289 289 289 289 288 288 288 288 289 288 287 285 284 284 288 288 285 284 286 286 282 281 283 282 279 277 276 275 274 274 273 272 271 270 269 268 268 267 267 268 269 268 267 266 266 265 265 264 263 262 262 262 262 261 261 261 261 261 261 260 260 260 260 260 261 263 263 263 263 264 266 267 267 267 267 268
291 291 291 290 290 290 290 290 291 290 289 289 289 288 288 289 289 288 288 288 288 288 288 285 282 284 285 283 283 287 286 281 280 281 280 278 277 276 274 273 273 272 271 270 269 268 267 267 267 267 268 268 267 266 266 265 264 264 263 262 262 262 261 261 261 261 261 260 260 260 260 260 260 260 260 260 262 265 265 265 264 264 265 266 266 267 267
291 291 291 290 290 290 290 290 290 290 288 288 288 288 288 288 286 286 287 288 286 286 288 288 284 283 283 282 281 284 283 279 278 278 277 275 275 274 273 272 271 270 269 268 268 267 267 266 266 267 268 268 267 265 265 265 264 263 263 262 261 261 261 261 260 260 260 260 260 260 260 260 259 260 260 259 260 262 264 266 266 267 266 265 265 265 266
291 290 290 290 290 290 289 288 289 290 288 286 287 288 287 285 285 285 285 285 284 283 285 286 285 283 282 281 280 280 279 277 275 276 275 273 272 272 271 270 269 268 267 267 266 266 266 266 265 266 267 267 266 265 264 264 263 263 262 262 261 261 261 260 260 260 260 260 260 259 259 259 259 259 260 260 260 260 261 262 264 267 268 267 266 264 264
290 290 290 290 290 290 289 288 289 290 289 286 288 288 285 283 284 284 282 282 282 281 280 282 282 280 278 278 278 277 276 274 273 272 272 272 270 270 269 268 268 267 266 266 266 265 265 265 265 265 267 267 265 264 264 263 263 262 262 261 261 261 261 261 260 260 260 259 259 259 259 259 259 259 259 260 260 260 260 260 260 261 263 264 264 263 263
290 289 290 290 290 290 290 289 288 290 289 287 287 286 284 283 283 284 284 284 281 278 276 276 277 276 274 274 275 274 272 271 270 269 270 270 269 268 267 266 266 265 265 265 265 265 264 264 264 265 266 266 264 263 263 262 262 262 262 261 261 261 261 261 260 260 260 259 259 259 259 259 259 260 260 260 260 260 260 260 260 260 260 261 262 262 262
290 289 289 289 290 290 290 289 288 289 289 286 284 283 284 285 285 286 287 285 281 278 276 274 273 273 273 272 272 271 270 269 268 268 268 268 267 266 266 265 264 264 264 264 265 264 264 264 263 264 266 265 263 262 262 262 262 262 261 261 261 261 261 261 260 260 259 259 259 259 259 259 259 259 259 259 259 260 260 260 260 260 260 261 261 261 262
289 289 289 289 289 289 289 289 289 289 289 288 286 285 284 285 286 286 285 282 280 280 276 271 269 271 271 271 271 271 270 269 268 267 267 266 265 264 264 263 263 263 263 264 264 263 263 263 262 263 265 264 262 262 262 261 261 261 261 260 260 260 260 260 259 259 259 259 259 259 259 259 259 259 259 259 259 259 260 260 260 260 260 260 260 261 261
290 290 290 290 289 288 289 289 288 288 289 288 287 285 283 283 284 285 284 282 280 277 273 268 267 269 269 269 269 269 269 268 267 266 265 264 263 263 262 262 262 262 262 263 263 262 262 262 262 263 264 263 262 262 261 261 261 261 260 260 260 260 260 259 259 259 259 258 258 259 258 258 258 258 259 259 259 259 259 259 260 260 260 260 260 260 261
290 290 290 290 288 287 287 288 288 288 287 285 285 285 284 283 284 285 283 281 278 274 271 270 270 268 267 267 267 266 265 265 264 263 263 262 262 262 261 261 261 261 261 261 262 262 261 261 262 264 263 262 261 261 261 261 261 260 260 261 260 260 260 260 259 258 259 258 258 258 258 258 258 258 258 258 259 259 259 259 259 259 260 260 260 260 260
290 290 290 289 287 286 286 286 285 286 286 285 283 284 283 282 282 283 280 277 274 271 269 269 269 267 265 266 265 264 263 263 262 261 261 262 262 261 261 260 260 259 260 261 261 261 261 261 262 263 262 261 261 261 260 260 260 260 260 261 260 260 260 260 259 258 258 258 258 258 258 258 258 258 258 258 259 259 259 259 259 259 259 260 260 260 260
290 290 290 290 289 287 287 287 286 285 285 284 282 281 280 277 276 274 271 270 271 269 266 265 266 265 265 265 264 262 262 262 262 261 260 261 261 260 260 259 259 259 259 261 261 261 262 262 262 262 262 261 261 261 260 260 260 260 260 260 260 260 260 259 259 258 258 258 258 258 258 258 258 258 258 258 258 258 258 258 259 259 259 259 260 260 260
289 289 289 290 289 288 288 288 287 286 285 284 282 279 274 270 267 266 265 265 267 266 264 264 264 264 263 263 262 261 261 261 261 260 260 260 260 259 259 259 259 259 259 261 262 262 262 262 262 261 261 261 261 260 260 260 260 260 260 260 260 260 259 259 259 259 258 258 258 258 258 258 258 258 258 258 258 258 258 258 258 259 259 259 260 260 260
285 288 290 286 281 282 284 283 282 283 284 282 280 276 270 264 262 263 263 262 263 263 263 263 263 262 262 262 261 260 260 260 260 260 260 259 259 258 258 258 258 258 258 260 263 263 262 261 262 261 261 261 261 260 260 260 260 260 260 260 259 259 259 259 259 259 259 258 258 258 258 258 258 258 258 258 258 258 258 258 258 259 259 259 259 260 260
276 280 286 281 271 270 272 269 267 270 272 271 269 269 265 261 260 262 262 262 262 263 263 262 262 261 261 261 260 260 260 260 259 259 259 259 258 258 257 257 257 256 255 257 261 263 261 260 261 260 260 260 260 260 260 260 260 260 260 260 259 259 259 259 259 259 259 259 258 258 258 258 258 258 258 258 258 258 258 258 258 259 259 259 259 259 259
267 266 271 269 262 260 261 260 259 263 266 264 261 261 261 260 260 261 261 261 261 262 262 261 261 261 260 259 259 259 259 259 258 258 258 258 257 257 256 255 256 256 255 257 260 261 260 259 260 259 259 260 260 260 260 260 260 260 260 259 259 259 259 259 259 259 259 259 258 258 258 258 258 258 258 258 258 258 258 258 258 258 259 259 259 259 259
267 262 261 260 258 256 257 258 258 261 263 262 259 257 258 260 261 260 260 260 260 260 260 260 259 259 258 257 257 258 258 259 258 258 258 257 257 256 255 256 257 258 258 259 260 260 259 260 260 259 260 260 260 260 260 260 260 260 260 259 259 259 259 259 259 259 259 259 259 258 258 258 258 258 258 258 258 258 259 259 259 259 259 259 259 259 259
269 264 260 260 260 258 256 256 256 257 259 260 259 258 259 260 260 259 259 258 258 258 259 258 258 257 257 257 257 258 259 258 258 257 257 256 256 255 254 256 259 260 259 259 259 259 260 260 260 260 260 260 260 260 260 260 260 260 260 259 259 259 259 259 259 259 259 259 259 258 258 258 258 258 258 258 258 259 259 259 259 259 259 259 259 259 259
263 260 258 259 259 257 256 256 256 256 257 259 259 258 259 260 259 258 258 257 257 257 258 258 257 257 257 257 257 257 258 258 257 257 256 255 255 253 253 255 259 261 259 259 260 260 260 260 260 260 260 260 260 260 260 260 260 260 260 259 260 260 259 260 260 259 259 259 258 259 259 258 258 258 258 258 259 259 259 260 260 260 259 259 259 259 259
260 259 259 258 257 256 256 256 255 255 256 257 257 258 258 259 259 258 257 257 257 257 257 257 257 257 257 257 256 256 257 257 257 257 256 256 255 254 253 255 259 260 259 259 260 260 259 260 260 259 260 260 260 259 260 260 260 260 260 260 260 260 260 260 260 259 259 259 259 259 259 258 258 258 258 258 259 260 260 260 260 260 260 260 260 260 260
258 258 258 257 256 255 255 256 255 255 255 256 256 257 258 258 258 258 257 257 257 257 257 257 257 256 257 256 255 255 256 257 257 257 257 257 257 256 255 257 259 260 259 259 259 259 259 260 260 259 259 259 259 259 260 260 260 260 260 260 260 260 260 260 260 259 259 259 259 259 259 258 258 258 258 258 259 260 260 260 260 260 260 260 260 260 260
257 257 256 256 255 255 255 255 255 256 255 255 256 257 257 257 258 257 257 257 257 257 257 257 257 256 256 256 255 255 256 257 257 256 255 255 257 258 258 258 259 259 259 259 259 259 260 260 259 259 259 259 259 259 260 260 260 260 260 260 260 260 260 260 260 260 259 259 260 259 259 259 259 259 258 259 260 260 260 261 260 260 260 260 260 260 261
255 256 256 255 255 255 255 255 256 256 256 256 256 256 257 257 257 257 257 257 257 257 257 257 257 257 256 256 256 256 257 257 257 256 254 254 255 258 259 259 259 259 259 259 259 259 259 259 259 259 259 259 259 259 259 259 260 260 260 260 260 260 260 260 260 260 260 260 260 260 259 259 259 259 259 259 260 260 260 260 260 260 260 260 260 260 260
255 255 255 255 255 255 255 255 256 256 256 256 256 256 256 257 257 257 257 257 257 257 257 257 257 257 257 257 257 257 257 258 258 258 257 256 257 258 258 258 258 258 258 258 259 259 259 259 259 259 259 259 259 259 259 260 260 260 260 260 260 260 260 260 260 260 260 260 260 259 259 259 259 259 259 259 260 260 260 260 260 260 260 260 260 260 260
254 254 254 254 254 254 255 256 256 256 256 257 257 256 256 256 256 256 256 257 257 257 257 257 258 258 258 258 258 258 258 258 258 258 259 258 258 258 258 258 258 259 259 259 259 259 259 259 259 259 259 259 259 259 260 260 260 260 260 260 260 260 260 260 259 259 260 260 259 259 259 259 259 259 259 259 260 260 260 260 260 260 260 260 260 260 260
254 253 253 254 254 254 255 256 255 254 255 256 257 256 256 256 256 257 257 257 257 258 258 258 258 258 258 258 258 258 258 257 257 258 259 259 258 258 258 258 258 259 259 259 259 259 259 259 259 259 259 260 260 260 260 260 260 260 260 260 260 260 260 260 260 260 260 259 259 259 259 259 259 259 259 260 260 260 260 259 259 259 259 260 260 260 260
254 253 253 253 254 254 254 254 254 254 255 256 256 256 256 256 256 257 257 257 257 257 258 258 258 258 258 258 258 259 259 258 258 258 259 258 258 258 258 258 258 259 259 259 259 259 259 259 259 259 259 259 260 260 259 259 259 259 259 260 260 260 259 259 260 260 259 259 259 259 259 260 260 259 259 260 260 260 260 259 259 259 259 259 259 259 260
253 253 253 253 254 255 255 255 254 255 256 256 256 256 256 256 257 257 257 257 257 257 257 257 257 257 258 258 258 259 259 259 258 258 258 258 258 258 258 258 258 258 258 259 259 259 259 259 259 259 259 259 259 259 259 259 259 259 259 259 259 259 259 260 260 260 259 259 259 260 260 260 260 259 260 260 260 260 260 260 260 259 259 259 259 259 259
253 254 254 255 255 256 256 256 256 256 256 256 256 256 256 256 256 256 256 256 256 257 257 257 257 258 258 258 258 258 258 258 258 258 258 258 258 258 258 258 258 258 258 259 259 259 259 259 259 259 259 259 259 259 259 259 259 259 259 259 259 259 260 260 260 259 259 259 259 259 259 259 259 259 260 260 260 260 260 260 260 260 260 259 259 259 259
255 256 256 255 256 256 255 255 256 256 256 256 256 256 256 256 256 256 256 256 256 256 256 256 257 258 258 258 258 258 258 258 258 258 258 258 257 258 258 258 258 258 258 258 259 259 259 259 259 259 259 259 259 259 259 259 259 259 259 259 259 259 260 259 259 259 259 259 259 259 259 259 259 259 259 260 260 260 260 260 260 260 260 259 259 259 259
Wind_Speed
5 2 4 4 3 3 4 6 8 10 7 6 7 7 8 7 6 9 9 5 7 10 10 7 7 8 9 9 9 8 7 7 6 5 6 7 7 7 7 8 9 9 9 10 14 17 17 18 18 17 16 15 14 12 10 8 8 8 8 6 7 8 9 10 11 13 14 17 21 24 25 25 25 26 27 28 30 31 33 34 35 36 36 35 35 36 37
4 2 4 4 4 3 4 7 10 10 8 6 7 9 11 9 8 11 11 10 11 11 9 7 7 7 8 7 7 5 5 6 6 7 7 7 7 8 9 10 10 9 9 12 14 16 18 19 20 20 19 17 16 15 14 13 11 11 10 8 8 9 10 11 12 13 15 18 22 25 26 25 26 27 28 30 31 33 35 36 37 37 37 36 35 35 36
5 1 4 4 3 3 4 9 11 8 4 5 10 11 9 6 8 11 10 10 12 11 7 6 5 3 4 5 6 6 5 5 6 6 7 7 8 9 10 10 9 7 8 11 14 16 19 21 22 22 21 19 18 18 17 16 13 12 11 9 9 10 11 11 13 15 17 21 25 27 26 26 27 28 29 31 33 35 36 37 37 37 37 37 37 36 35
5 2 3 4 2 3 5 13 14 9 6 8 10 7 6 8 10 10 8 7 9 9 5 3 3 3 5 6 7 6 4 4 5 6 7 7 8 9 9 8 7 7 8 11 14 18 21 23 23 22 22 21 21 21 20 18 14 12 11 10 10 11 12 12 14 16 20 24 26 27 27 27 28 29 31 33 34 36 36 37 37 37 37 37 38 37 35
4 4 2 1 5 5 7 11 10 10 10 11 9 6 8 10 8 6 7 7 7 6 4 4 5 5 6 6 6 5 4 5 6 6 7 7 8 8 8 8 7 8 10 14 17 21 23 24 24 23 23 23 23 23 21 17 13 11 10 10 11 11 11 13 15 18 21 24 25 26 26 27 29 31 33 34 35 35 36 36 36 37 37 37 38 36 34
3 4 0 4 1 5 8 4 4 8 10 11 10 10 11 10 7 5 6 6 5 4 4 6 9 8 6 5 5 5 5 5 6 6 6 6 7 7 7 6 7 10 13 16 19 22 23 25 24 24 23 23 22 19 16 13 11 10 10 10 10 11 11 14 17 19 21 22 23 24 26 27 30 31 32 33 33 33 35 35 36 37 38 38 37 36 33
2 2 3 1 7 9 5 3 1 5 7 7 8 8 9 9 8 7 6 7 7 7 7 8 7 6 3 3 4 5 5 6 6 5 6 6 6 5 5 5 8 12 15 17 19 21 22 24 24 23 21 19 16 13 12 12 11 10 10 10 10 12 13 16 17 19 20 21 22 24 26 28 29 30 30 31 32 32 33 34 35 36 37 37 37 36 34
1 2 4 6 7 6 8 7 2 2 2 2 2 5 8 9 9 7 7 9 9 8 7 6 3 3 1 1 2 5 5 4 5 6 6 6 6 6 7 8 11 13 15 15 16 16 17 19 19 18 16 15 14 13 13 12 11 10 10 10 11 13 15 15 16 17 19 21 23 25 26 27 28 28 29 30 30 30 32 33 34 34 35 35 35 35 35
2 3 5 4 4 8 12 9 3 3 3 5 5 3 8 8 6 7 7 8 9 6 4 3 2 2 2 2 4 5 6 6 6 7 7 7 7 9 10 11 12 13 13 13 13 13 14 15 15 15 15 16 15 14 13 11 11 10 10 11 12 14 14 15 16 17 19 21 23 25 25 26 27 28 28 29 29 29 30 33 33 33 34 35 33 33 35
3 3 4 4 3 7 11 7 3 2 3 6 7 2 5 7 6 7 8 7 6 3 2 3 2 3 1 3 5 5 6 6 6 7 9 9 9 10 11 11 12 13 14 13 13 14 15 15 16 16 16 16 15 13 12 10 10 10 11 11 12 13 13 15 17 18 20 21 22 23 24 24 26 26 27 28 28 28 29 31 33 33 33 34 34 32 33
2 4 5 5 5 8 8 6 5 3 5 6 7 3 5 7 6 7 7 6 6 5 6 5 4 4 3 6 6 5 6 7 6 7 8 9 10 11 12 12 12 13 13 12 13 16 17 17 16 15 15 14 13 11 9 9 9 10 10 10 11 12 14 16 18 19 19 20 20 21 23 23 24 25 26 27 28 28 28 30 32 33 32 33 34 32 32
6 6 5 4 5 6 5 5 4 3 4 6 8 1 8 6 4 7 8 7 7 7 7 6 6 6 6 6 6 6 7 8 8 8 8 9 10 11 11 10 10 10 11 13 16 17 17 16 15 14 12 11 9 8 7 8 9 9 10 10 11 13 15 17 18 18 17 18 18 20 21 22 23 23 25 26 27 28 29 30 32 33 32 32 34 34 33
9 8 6 4 4 5 5 5 6 5 3 6 3 6 7 5 6 7 8 8 8 7 7 6 6 7 8 7 5 4 5 7 9 10 11 10 10 10 10 10 9 9 12 16 17 17 16 15 14 12 10 8 7 7 7 8 8 9 10 11 13 14 16 17 17 17 16 17 18 18 19 21 23 23 24 25 27 28 30 31 32 33 33 32 34 35 33
6 6 5 4 5 5 6 4 3 4 4 1 5 7 3 6 8 7 7 8 7 7 9 8 8 8 8 7 4 3 5 7 8 9 10 10 10 11 10 9 9 12 15 16 16 16 15 14 12 10 8 7 7 7 7 7 9 10 11 12 14 15 16 16 16 16 16 16 17 18 18 19 21 24 24 24 26 28 30 31 32 33 33 32 32 33 32
3 3 4 4 6 5 9 9 1 1 4 6 5 3 2 5 7 7 7 8 7 7 8 8 8 8 8 7 6 6 6 6 8 10 11 11 12 12 10 10 13 16 17 17 17 16 14 13 11 9 8 7 7 7 7 8 10 11 12 13 14 15 16 16 16 16 16 17 17 17 18 19 20 23 25 25 26 28 29 31 32 32 31 30 30 32 32
4 4 6 5 4 4 9 10 5 6 9 7 4 4 4 4 4 5 6 7 7 8 8 8 8 9 8 8 8 7 7 7 8 10 12 13 14 12 11 12 15 18 19 19 18 16 14 12 10 9 8 7 7 7 8 9 10 11 12 13 14 15 15 16 16 16 16 17 17 17 18 18 20 22 24 26 27 27 28 28 30 30 29 29 28 29 31
4 5 6 5 2 3 7 8 7 9 10 7 6 6 5 4 4 5 5 6 7 8 9 9 8 7 8 9 8 8 8 8 9 10 14 15 15 13 13 14 16 19 20 20 19 16 13 11 9 9 8 8 7 8 9 10 11 12 12 13 14 15 15 16 16 17 17 17 17 17 17 18 20 22 24 26 27 27 28 27 28 29 29 28 28 29 30
2 3 4 3 2 2 6 9 7 7 7 5 6 6 5 5 6 5 5 7 8 8 9 8 7 7 9 9 9 9 8 8 10 12 14 13 11 12 14 16 18 19 19 18 17 15 12 11 10 9 9 8 8 8 9 10 11 12 13 13 14 15 15 16 16 17 18 18 18 18 18 18 20 21 23 25 27 28 28 27 27 28 28 27 27 28 28
2 2 3 5 5 5 7 9 9 7 7 5 6 6 6 6 7 7 7 8 9 8 8 8 8 10 10 10 10 9 8 9 9 10 11 11 13 15 17 19 20 20 18 17 15 13 12 11 10 10 8 7 8 9 10 10 11 12 13 13 14 15 15 16 17 17 18 19 19 19 20 20 21 22 23 24 26 28 28 28 27 27 27 27 26 27 29
4 4 6 6 6 5 6 7 7 6 8 8 6 6 7 7 7 7 8 8 8 7 7 9 10 11 10 10 10 9 8 8 8 9 11 14 15 15 17 19 20 19 17 15 13 12 11 10 10 10 8 7 8 9 10 10 10 11 12 13 14 15 16 16 17 17 18 19 20 21 21 21 21 23 24 24 26 27 28 28 28 28 27 27 27 29 32
3 5 8 5 2 6 8 8 8 8 8 9 8 7 7 7 8 8 8 8 9 9 9 10 10 11 11 10 10 10 8 7 8 11 13 15 16 16 18 19 19 17 15 13 11 10 10 9 9 9 8 7 8 9 10 9 10 11 12 13 14 15 16 17 18 18 19 19 20 21 22 23 23 23 24 24 25 28 29 27 27 28 30 30 31 32 33
4 7 9 6 3 5 9 10 11 11 10 9 9 9 8 8 10 10 10 10 10 11 12 11 9 9 11 10 9 9 8 8 11 14 14 14 15 16 18 17 16 14 12 10 10 9 8 8 8 9 8 7 8 9 9 9 9 11 12 13 15 16 16 17 18 19 19 20 20 21 22 23 24 25 25 23 23 26 28 28 26 27 29 31 33 35 36
8 9 9 7 6 7 9 9 9 9 7 7 9 11 11 11 11 11 10 11 11 10 12 14 13 10 10 11 10 8 8 12 15 15 15 15 16 18 18 16 14 12 10 9 9 8 8 8 8 9 9 8 7 8 9 8 9 10 11 13 15 16 17 18 19 19 20 20 20 20 21 21 23 25 28 29 28 26 25 26 27 27 28 29 31 32 33
9 11 10 7 7 8 10 10 10 9 7 7 9 11 11 11 10 10 10 11 11 10 10 12 15 15 13 12 12 10 10 13 15 14 14 15 16 17 17 15 13 11 10 9 9 8 8 8 9 9 9 8 7 8 8 8 9 10 10 12 14 16 17 18 19 19 19 20 20 20 21 21 22 23 25 28 32 32 29 27 27 28 28 28 28 29 29
11 12 10 6 7 8 9 8 8 9 7 7 7 8 10 10 11 11 10 9 11 12 10 9 14 19 18 15 15 14 11 12 14 14 14 13 13 14 14 12 11 10 9 9 9 8 8 8 9 10 10 7 6 8 8 8 9 10 10 11 14 16 18 19 19 19 19 19 19 19 20 21 22 22 22 22 26 31 35 36 35 33 29 25 24 25 27
12 12 8 3 4 7 7 4 6 11 11 8 6 7 10 12 13 13 13 12 13 15 13 11 13 17 19 17 15 13 11 10 12 14 14 14 13 13 12 11 10 9 9 9 8 8 9 9 10 11 10 7 6 8 9 9 9 10 10 12 13 15 17 18 17 18 18 18 19 19 20 21 21 22 22 21 22 24 28 32 35 37 37 35 32 29 29
10 10 9 5 5 10 10 9 12 15 12 7 7 9 13 16 15 12 12 13 13 13 13 12 11 11 12 12 10 9 9 10 12 13 13 13 12 11 10 10 9 8 8 9 8 9 10 10 10 11 10 7 6 8 9 9 9 10 11 12 14 15 16 16 16 16 17 17 18 19 20 21 21 20 21 22 22 22 23 23 25 29 34 39 42 39 35
10 9 9 9 12 16 14 10 10 11 10 8 10 11 11 11 9 7 8 10 9 8 8 8 8 9 9 9 9 8 9 10 12 12 12 12 11 10 9 9 9 8 8 9 9 10 10 10 11 12 10 7 6 8 8 9 9 10 11 13 14 15 15 15 15 16 16 17 18 19 19 19 20 20 21 21 22 22 23 22 23 25 28 33 39 41 37
12 9 8 10 14 14 10 5 4 6 8 8 9 8 7 6 6 7 9 8 6 6 5 5 7 8 9 10 11 10 9 10 11 12 12 12 11 10 9 9 8 8 9 10 10 10 10 10 11 13 11 7 6 8 9 9 10 10 12 13 14 14 14 14 14 15 16 17 17 17 18 18 19 20 20 21 21 22 23 23 23 24 26 29 32 36 37
11 6 6 8 10 9 8 8 8 8 8 8 7 6 6 7 7 8 9 7 5 6 6 7 7 8 9 11 13 12 11 11 11 11 11 10 9 9 8 8 7 8 9 9 9 9 10 11 13 14 11 7 7 9 9 9 10 11 12 13 13 13 13 13 13 14 15 16 17 17 17 18 18 18 19 20 21 21 21 22 22 23 25 27 27 27 31
7 6 8 10 9 8 10 10 10 10 9 7 7 6 6 7 8 9 9 7 6 6 7 8 9 9 11 12 12 10 9 9 8 8 8 7 7 7 6 7 7 8 9 9 10 10 11 13 15 14 11 9 9 10 9 9 10 11 12 12 12 12 12 11 11 12 13 15 16 17 17 17 17 17 18 19 20 20 21 22 23 23 24 25 25 25 28
6 5 8 8 7 7 10 9 8 10 9 6 7 8 8 9 10 11 9 7 7 8 9 8 8 9 10 10 10 9 7 6 6 5 5 5 5 5 6 7 7 8 9 11 11 12 14 16 17 14 11 10 11 10 9 10 11 11 12 12 12 12 12 11 10 11 12 14 15 15 16 17 17 17 18 18 19 20 21 21 22 23 23 23 25 27 29
9 10 11 9 7 7 9 9 8 10 10 8 8 9 9 8 8 9 7 6 7 8 8 7 7 9 11 11 10 9 7 6 4 3 4 5 5 5 5 6 7 8 10 12 13 15 16 19 18 15 12 12 11 10 9 10 11 11 11 12 12 12 12 10 10 11 12 12 13 14 15 16 17 17 17 18 18 19 20 20 21 23 23 24 25 27 28
13 13 14 12 9 9 10 11 10 9 10 9 7 7 6 6 5 5 6 7 6 6 7 9 10 12 13 12 10 8 7 5 3 2 4 4 5 5 6 7 9 11 13 14 16 17 19 19 18 15 13 11 10 9 9 10 10 11 11 11 11 11 11 10 10 10 11 12 12 13 14 15 16 16 17 18 18 19 19 20 21 22 23 24 26 28 28
11 11 11 10 8 9 10 10 9 8 9 9 7 5 5 5 6 6 7 7 7 8 10 12 13 13 12 11 9 8 7 5 4 4 5 5 6 7 8 9 11 13 15 17 17 17 17 16 15 13 11 9 9 9 10 10 10 10 10 10 10 10 10 9 9 9 10 11 11 12 13 14 15 15 15 17 17 18 18 19 20 21 22 24 26 28 28
7 9 9 6 3 4 4 3 3 5 7 6 5 4 5 6 8 9 9 9 11 13 14 14 14 12 11 10 9 8 7 7 6 6 7 7 7 8 9 10 12 15 18 19 16 13 10 9 9 8 8 9 10 11 11 10 10 10 9 9 9 9 9 9 9 9 9 9 10 11 12 12 13 13 14 15 16 16 17 18 19 20 20 22 24 26 27
4 5 6 3 3 4 3 3 2 4 6 6 5 6 7 8 10 12 13 13 13 13 13 13 12 11 10 9 8 8 8 8 7 7 7 7 8 9 10 11 13 13 14 15 14 11 8 7 8 8 10 12 12 12 11 10 10 9 9 9 9 8 8 9 9 8 8 9 9 10 11 12 12 13 13 13 14 15 16 17 18 19 20 21 22 24 25
3 3 5 6 6 6 6 6 6 8 11 10 8 8 10 13 14 14 14 14 12 11 11 10 10 9 9 8 7 8 8 8 7 7 7 7 8 9 10 12 14 15 15 16 16 15 13 13 13 12 13 13 12 12 11 10 9 8 8 8 8 8 8 8 8 8 8 9 9 10 10 10 12 13 13 13 13 14 14 16 17 18 19 21 22 23 24
5 6 7 8 8 9 9 9 9 9 11 12 11 11 12 15 15 14 14 12 10 9 9 9 8 7 7 6 7 8 7 6 5 6 7 7 8 11 14 16 18 19 19 19 19 18 16 15 13 11 11 11 11 11 10 9 8 8 8 8 8 8 8 8 8 8 8 8 8 9 9 9 10 12 12 12 13 13 14 15 16 17 19 21 21 22 23
5 5 6 7 8 7 7 8 10 11 11 14 14 13 13 14 14 13 12 11 8 7 6 7 7 6 5 6 7 7 6 5 5 7 8 8 10 12 14 17 18 16 15 15 14 13 11 9 8 8 10 10 10 10 10 9 8 8 7 7 8 8 8 8 7 7 7 8 8 8 9 9 10 11 11 12 12 13 13 15 16 17 18 20 21 22 23
5 6 6 7 7 7 8 9 10 12 12 12 13 13 13 13 12 11 11 9 7 6 5 5 5 4 4 5 7 8 8 8 8 9 9 10 11 10 10 14 15 12 10 9 10 8 7 6 7 9 11 11 10 10 10 8 8 8 7 7 8 7 7 7 6 6 7 7 7 8 8 9 10 11 11 11 12 12 13 14 15 16 18 19 20 21 22
6 7 7 7 6 8 10 10 11 11 11 11 12 12 10 10 10 10 10 8 7 6 4 3 3 4 6 6 8 10 10 10 10 10 11 12 12 10 11 14 15 11 8 8 7 6 7 8 10 12 13 12 11 10 9 8 8 8 7 7 8 7 7 6 6 6 6 6 7 7 7 8 9 11 11 11 12 12 13 14 15 16 17 18 19 20 20
7 8 8 7 7 9 11 12 11 11 10 10 10 10 9 9 9 8 8 6 5 4 3 2 3 5 7 8 9 11 12 11 11 11 11 12 13 14 15 17 16 12 9 10 9 9 11 12 12 13 13 11 10 9 8 8 8 8 8 8 8 7 6 7 6 6 6 6 6 7 7 8 9 10 11 11 12 12 12 13 15 16 17 17 18 19 19
9 9 9 8 10 11 12 12 11 10 9 9 10 9 8 7 6 5 5 4 3 2 2 3 4 5 7 8 9 11 11 11 11 10 9 10 13 13 11 10 9 7 6 6 7 9 10 11 12 12 12 10 9 9 9 8 8 8 8 8 8 7 7 7 7 7 7 7 7 7 8 9 9 10 10 11 12 12 12 13 14 15 16 17 17 18 18
10 10 11 12 12 12 11 11 10 10 11 11 9 7 6 5 4 4 3 3 2 1 2 4 5 6 7 8 9 10 11 11 11 10 8 7 8 8 6 5 6 6 6 7 8 10 11 11 11 11 10 9 9 10 9 9 9 8 8 8 9 8 8 9 9 9 9 8 8 8 9 9 9 10 10 11 12 12 13 14 14 15 16 17 17 18 18
11 11 12 12 12 11 11 12 12 12 12 11 8 6 5 5 4 4 3 1 1 1 2 4 5 6 7 8 9 10 11 11 12 12 11 11 12 11 10 9 10 10 9 10 12 13 13 11 10 10 10 10 10 10 10 10 9 9 9 9 9 9 10 10 10 10 10 10 10 10 10 10 10 11 11 11 12 13 13 14 15 15 16 16 17 17 18
11 11 11 12 12 12 12 12 11 11 9 8 6 6 6 5 4 3 2 0 1 1 2 4 5 5 6 7 8 10 11 12 12 10 7 6 8 8 8 8 8 8 9 11 13 14 13 11 10 9 10 10 10 11 11 11 10 10 10 10 10 11 11 12 12 11 12 12 12 12 12 12 12 12 12 13 13 13 14 15 16 17 17 17 17 18 18
11 11 11 12 12 11 10 10 9 8 7 6 6 6 5 4 3 3 2 1 1 1 2 3 4 5 6 6 7 8 9 9 8 5 3 2 5 7 8 10 12 12 13 14 14 13 11 10 9 9 10 10 11 11 11 11 11 11 11 11 11 12 13 13 12 12 13 13 13 14 14 14 13 14 14 14 14 14 15 16 17 17 18 18 18 18 19
12 13 12 12 11 10 9 9 8 6 6 6 7 6 4 3 3 3 2 1 1 2 2 3 5 6 5 5 5 6 6 7 7 7 7 8 10 11 12 13 13 13 12 12 12 11 9 9 10 10 10 11 11 11 11 12 12 12 12 12 12 12 12 13 13 13 14 14 15 15 15 15 15 15 15 15 15 15 16 17 17 18 18 19 19 19 19
12 12 10 9 9 9 8 7 6 6 6 6 6 4 3 2 3 2 1 1 2 3 4 5 5 5 4 4 4 4 4 5 7 9 11 12 12 13 12 12 11 11 11 11 11 10 9 9 10 10 11 11 12 12 12 12 12 12 12 12 12 12 12 12 13 13 14 15 15 15 16 16 16 16 16 16 16 16 17 17 18 18 18 19 19 20 20
10 9 8 7 7 7 6 5 5 5 5 4 4 3 2 1 1 1 2 2 3 4 6 6 4 2 1 2 3 4 4 5 7 9 10 11 11 11 11 11 10 11 11 11 11 11 10 10 11 11 12 12 13 13 13 13 13 13 13 12 12 12 13 13 14 14 14 15 15 16 17 16 16 17 17 16 16 17 18 18 18 19 19 19 19 20 20
9 9 8 7 6 5 5 4 4 4 4 3 3 3 2 0 1 2 2 2 3 4 6 7 6 4 2 2 3 4 5 7 8 9 9 9 9 10 11 11 11 11 11 11 12 12 12 12 13 13 13 14 14 14 14 14 14 14 14 14 14 14 15 15 15 16 16 16 17 18 18 17 17 18 17 17 17 18 18 19 19 19 19 20 20 20 21
Wind_Direction
258 133 146 173 156 178 208 217 239 247 231 172 164 211 217 179 196 247 252 216 209 240 254 236 206 208 220 230 233 229 230 231 216 194 198 205 200 194 193 197 201 203 208 210 207 206 203 199 199 202 206 211 213 216 223 229 235 243 251 268 284 285 284 291 300 309 317 324 329 329 327 324 323 323 322 322 321 321 320 319 318 317 316 315 314 313 311
262 178 171 188 174 195 231 233 234 240 240 210 197 226 232 213 220 245 254 255 251 250 247 240 231 218 212 226 238 225 215 219 205 194 202 204 197 195 199 205 208 208 210 209 209 210 209 206 207 210 214 217 220 226 230 231 234 236 240 256 275 277 279 287 297 306 312 319 323 323 322 320 320 320 319 319 318 318 317 316 315 315 314 313 312 310 310
282 261 175 196 181 177 234 257 250 233 208 220 231 238 241 233 237 244 247 257 265 264 243 229 250 236 179 198 224 222 215 205 186 191 205 202 199 204 207 211 214 215 215 214 216 216 214 215 216 218 222 225 228 232 233 232 234 234 237 252 269 272 276 284 294 302 309 314 317 318 317 317 317 317 317 317 316 315 314 314 314 314 312 311 310 309 309
274 303 182 216 25 41 282 270 260 240 211 229 241 234 218 223 236 245 247 246 256 265 265 252 247 203 185 202 209 212 223 204 179 191 203 202 205 210 214 218 219 220 218 216 219 221 222 223 224 226 230 232 233 236 238 237 235 232 237 253 267 270 275 285 295 303 308 311 312 313 313 314 315 316 315 314 314 314 313 313 313 312 310 309 308 307 308
269 300 209 182 41 18 283 263 246 232 233 241 249 248 234 226 215 219 234 235 239 249 265 271 256 231 224 224 207 197 213 212 206 208 204 204 212 213 215 220 219 221 222 221 224 228 230 232 234 236 238 238 240 242 241 235 229 229 240 256 264 268 278 289 298 305 307 308 308 309 310 312 313 313 312 312 313 313 312 312 311 309 308 307 305 306 307
252 273 56 68 31 254 258 257 176 199 221 230 232 240 241 229 204 208 236 245 245 237 222 230 242 244 236 219 204 198 197 196 207 220 216 212 218 222 225 228 230 234 236 236 237 239 241 243 244 244 244 243 244 241 232 222 220 227 241 251 258 269 283 294 301 304 304 304 305 306 308 309 309 309 310 311 311 311 311 310 309 307 306 306 305 305 305
196 224 90 114 239 242 267 331 112 190 211 214 220 244 252 238 226 228 243 252 247 235 228 227 234 242 231 193 197 202 195 185 183 198 221 219 214 225 234 232 234 236 237 241 244 246 248 248 247 245 244 240 232 218 208 209 216 227 238 246 259 275 288 296 299 301 302 302 303 305 306 307 307 307 308 308 309 309 309 307 306 305 305 304 304 305 306
153 147 162 214 247 283 298 286 241 159 204 185 202 275 267 245 227 209 220 246 245 237 245 251 237 217 187 118 239 229 220 205 183 187 217 219 202 213 227 226 230 236 239 241 244 245 246 243 239 235 227 214 202 196 198 208 216 226 238 252 270 282 290 295 298 299 301 302 302 304 306 307 307 307 308 307 307 308 308 306 305 304 303 303 303 304 305
169 172 214 246 317 310 285 268 207 175 206 167 153 244 262 249 218 175 185 232 241 238 254 251 193 126 82 2 292 256 237 226 207 205 217 213 204 219 233 236 242 251 253 248 241 235 228 220 212 205 197 193 193 194 197 206 217 231 249 265 277 284 289 294 297 299 300 302 304 306 306 306 306 307 307 307 308 309 307 306 305 304 303 302 302 302 302
126 139 242 275 294 265 260 261 253 223 186 152 139 162 276 266 222 177 177 205 210 188 194 202 152 90 79 273 270 251 235 227 212 213 222 218 217 230 240 244 253 263 262 253 238 222 208 196 190 189 188 189 192 193 197 211 227 244 261 270 277 285 291 295 297 299 301 303 305 305 305 305 306 307 308 308 309 310 308 305 304 302 301 300 300 300 300
148 162 224 232 235 249 251 253 257 210 151 132 102 59 292 262 210 177 175 189 194 185 186 181 148 131 201 251 261 242 229 224 206 202 216 224 230 241 246 249 259 269 264 245 222 205 193 183 181 183 186 188 190 194 207 227 245 257 266 272 279 288 293 295 296 299 302 304 304 304 305 306 307 308 309 309 310 310 308 304 302 301 300 299 299 299 299
211 210 229 232 239 255 245 227 218 184 137 91 80 4 271 253 196 172 169 184 206 201 184 167 160 177 207 234 241 225 215 220 217 209 216 231 241 248 252 257 267 268 246 218 200 191 185 181 180 182 186 190 196 208 227 244 257 265 270 277 286 291 293 294 297 301 305 305 304 305 306 308 310 310 310 311 311 310 308 304 301 299 299 298 298 298 299
222 219 230 251 263 247 219 199 188 171 99 64 106 228 239 201 186 186 174 189 206 187 170 173 189 209 218 221 228 211 196 216 228 226 228 239 250 255 260 265 262 238 213 201 193 187 184 184 183 188 194 201 213 229 243 255 264 270 276 285 292 294 296 299 303 307 309 308 307 308 309 312 311 310 312 312 311 311 308 304 301 299 299 299 298 298 300
225 225 228 257 275 237 179 163 189 161 124 146 222 226 199 166 186 195 191 204 206 180 180 194 205 222 231 231 241 230 203 214 230 233 234 240 246 247 249 249 231 206 193 189 186 184 186 189 193 200 208 219 230 242 256 266 272 276 283 291 295 297 300 304 308 312 313 311 311 311 313 314 311 310 313 314 312 311 307 303 301 299 299 300 299 299 301
175 214 219 227 260 222 146 127 96 218 192 212 217 208 195 184 182 184 198 213 206 186 194 209 216 231 242 242 242 238 227 227 235 238 238 239 240 238 231 222 212 198 187 184 184 186 190 196 204 213 223 234 243 255 270 275 277 281 288 294 298 300 304 309 312 315 315 314 314 314 315 315 312 311 313 314 311 309 305 302 300 298 298 300 300 300 302
151 188 215 214 228 193 151 149 175 210 211 208 165 156 200 212 187 182 200 219 211 192 197 212 219 229 242 244 241 238 233 231 233 237 239 238 235 229 220 216 209 198 189 185 185 189 196 203 214 226 237 247 257 268 275 276 277 285 292 296 300 304 309 312 315 317 316 316 316 316 316 316 312 310 313 313 310 306 303 300 297 296 298 300 300 300 302
173 187 215 222 203 171 181 189 195 206 218 212 161 158 189 209 204 191 194 219 219 200 200 212 216 222 234 239 240 237 232 228 227 229 232 232 229 222 215 211 205 199 195 190 187 190 199 209 223 237 246 254 265 272 277 278 283 291 296 299 303 307 312 315 318 320 318 317 318 317 317 316 312 310 312 310 306 304 302 298 295 295 296 298 299 299 300
235 218 211 206 186 183 207 216 214 213 221 205 168 179 212 222 214 200 195 215 221 206 202 210 219 227 231 235 238 236 233 233 229 225 225 223 216 210 205 201 197 195 192 190 189 192 201 214 230 241 247 257 271 278 282 286 291 296 299 301 305 310 314 317 320 321 319 318 320 319 318 316 312 311 311 308 304 302 300 297 295 294 295 297 298 298 298
225 247 217 197 196 198 203 215 227 240 249 233 192 191 217 226 219 211 210 218 222 212 199 199 217 231 230 229 236 236 231 233 232 223 218 213 208 208 206 199 194 190 187 188 191 197 207 219 232 241 250 267 282 287 289 292 295 296 299 303 307 312 317 320 321 322 320 318 319 318 317 316 314 312 311 307 301 298 297 296 295 294 295 296 297 296 294
207 240 242 220 214 230 225 217 223 237 249 250 235 215 221 232 233 229 221 217 220 223 215 208 218 232 231 224 229 233 231 230 228 219 214 210 209 210 205 196 191 189 189 192 198 205 214 221 231 244 261 281 291 293 294 295 294 296 300 305 309 313 319 321 321 322 319 317 317 317 317 317 315 313 312 308 302 298 297 297 295 294 294 294 294 294 293
233 263 256 240 253 281 267 245 232 231 234 242 246 241 236 237 243 246 240 226 218 222 228 223 218 227 233 227 222 227 228 223 219 218 216 213 209 203 196 192 191 193 195 199 206 214 221 226 237 254 272 289 295 295 294 292 292 296 301 306 310 314 319 321 321 320 318 317 317 317 317 317 315 313 312 308 301 298 299 298 293 291 294 296 296 296 295
235 243 237 217 203 255 255 243 238 237 231 231 240 248 247 240 239 243 246 244 236 229 233 233 220 221 234 231 218 221 225 217 215 216 213 208 202 196 190 189 193 198 203 208 212 218 226 235 248 265 280 293 296 292 288 288 289 294 302 307 310 314 318 319 318 318 317 317 318 318 318 317 316 314 313 309 300 295 295 297 294 293 294 296 299 300 299
238 239 230 206 194 233 250 250 248 245 228 213 222 235 240 238 237 235 235 243 247 242 239 235 221 217 231 228 212 212 222 220 218 216 210 202 194 189 189 190 194 202 209 214 218 223 232 245 260 276 291 300 296 286 281 282 285 291 301 306 309 313 316 316 316 316 315 316 318 318 317 316 315 313 313 314 313 307 299 296 298 300 301 301 301 301 301
241 248 240 207 186 222 242 244 248 251 236 212 215 227 234 237 239 236 229 233 239 242 245 241 228 222 228 224 209 208 218 217 212 205 202 200 193 189 191 195 200 208 214 218 226 232 241 256 273 286 296 300 291 280 277 277 280 289 298 303 306 310 312 313 314 315 315 316 317 317 317 317 315 313 311 313 318 321 320 314 307 305 305 306 306 307 306
235 246 243 197 177 215 236 242 254 258 246 220 215 227 232 232 235 236 228 226 232 232 237 243 231 222 220 217 211 209 210 207 199 190 185 185 185 187 193 200 209 215 218 224 232 241 252 269 282 288 292 295 288 277 273 273 279 287 296 302 304 306 309 311 313 314 315 316 316 315 316 315 313 311 310 308 311 317 323 326 324 321 318 314 310 310 311
235 246 247 200 177 220 233 240 259 259 247 223 212 230 235 230 231 232 228 229 235 233 229 234 231 221 217 216 213 208 198 186 182 180 176 175 182 190 196 203 211 215 222 230 240 252 267 278 282 283 288 294 286 273 269 271 277 284 294 302 304 305 308 309 309 311 314 315 315 315 314 312 309 308 309 309 308 309 314 321 326 329 329 329 327 324 321
235 236 234 235 250 249 237 224 237 251 249 219 205 231 242 237 235 239 239 241 245 242 239 243 240 222 212 209 203 191 176 165 166 173 178 181 187 194 198 205 212 217 228 241 254 266 276 280 278 280 287 294 283 271 266 268 275 284 294 301 304 307 310 310 309 311 314 315 315 314 311 310 309 308 308 309 310 309 309 311 314 316 319 323 326 327 326
240 225 207 211 235 246 244 230 229 244 249 228 217 228 239 239 237 240 245 245 243 236 236 238 224 200 187 183 176 164 160 163 168 176 182 185 190 195 199 206 217 227 240 255 266 273 276 276 275 280 289 295 281 268 265 268 277 286 295 301 305 307 310 312 313 315 316 317 316 313 310 308 308 308 309 309 309 308 308 308 308 307 307 312 318 322 324
241 226 200 210 229 244 258 260 224 230 241 236 223 216 216 217 222 232 237 234 220 207 205 203 196 187 180 177 175 170 169 177 182 184 184 186 191 196 204 215 227 240 253 264 270 271 271 273 277 283 291 296 280 267 266 271 279 288 296 302 304 306 309 314 318 318 317 316 314 311 308 307 307 309 311 311 311 311 310 308 309 310 310 312 317 322 326
238 204 186 220 234 240 254 259 247 240 240 235 225 214 200 201 219 238 238 222 202 199 195 181 177 179 180 183 188 191 191 192 189 184 183 186 193 203 217 231 241 251 260 266 269 272 274 278 280 284 292 295 278 269 270 274 281 291 298 300 301 305 310 314 315 313 313 313 313 312 310 310 311 314 314 313 313 313 311 312 313 313 313 315 318 320 322
235 172 185 221 229 222 231 242 244 246 245 230 218 217 203 200 223 240 234 215 201 197 187 178 180 189 192 191 191 191 186 181 177 175 180 194 210 228 247 258 260 262 268 272 275 278 280 281 281 285 293 291 276 269 271 277 284 292 296 297 300 305 310 312 311 308 308 310 311 314 315 316 318 318 317 316 316 315 314 316 317 316 316 317 318 320 322
241 213 215 226 223 218 228 235 237 245 246 218 201 215 214 205 219 233 229 210 197 191 184 184 191 194 189 179 171 165 159 157 162 177 197 221 243 262 274 276 276 277 280 281 284 285 285 283 284 289 293 285 273 267 270 279 287 291 291 294 299 303 309 315 314 309 309 311 314 317 319 319 320 321 318 317 317 316 317 319 318 317 318 318 319 323 327
226 238 242 236 220 219 235 237 230 237 240 222 211 223 223 210 218 229 218 188 179 180 180 182 185 178 168 162 158 155 152 154 166 201 239 256 272 286 290 288 287 286 284 285 287 287 284 284 287 292 288 274 264 262 270 281 287 287 287 293 298 300 306 315 316 312 312 316 319 322 322 320 321 322 320 319 318 317 319 320 318 317 319 321 321 326 330
214 229 241 238 217 208 225 231 224 226 236 236 227 223 216 207 206 199 171 154 155 165 168 166 163 159 156 156 155 152 154 162 185 238 265 281 295 301 299 293 290 287 287 287 287 286 286 287 289 287 275 259 253 263 279 287 287 284 285 290 295 298 305 314 316 314 317 321 323 326 326 325 326 325 322 320 320 320 322 322 320 319 321 323 326 331 334
215 227 243 244 224 210 220 227 221 215 223 232 229 213 191 171 155 146 141 138 139 145 150 149 147 148 150 151 151 157 172 190 211 240 265 285 295 298 298 295 293 292 291 289 288 290 291 289 281 269 254 245 255 277 289 289 283 280 283 288 292 297 305 311 314 316 321 326 329 330 330 329 327 327 325 323 322 324 326 325 323 323 324 325 328 333 338
209 221 232 237 219 195 203 223 230 213 205 205 197 169 147 138 137 136 132 129 131 137 140 141 142 145 151 157 163 176 194 209 223 242 262 278 286 291 294 292 293 296 295 293 295 303 301 284 262 245 244 257 274 286 291 286 277 277 282 287 290 296 300 306 313 320 325 331 333 333 333 331 328 328 329 327 327 331 332 328 327 328 327 327 329 333 337
209 221 215 188 127 109 93 58 61 126 126 115 118 134 136 131 129 128 128 128 132 138 142 145 148 152 159 171 184 196 207 217 229 245 261 274 283 288 288 286 286 284 280 283 295 309 303 280 267 261 264 272 279 284 284 278 273 276 283 284 286 291 297 303 312 319 327 334 336 335 335 335 332 332 333 331 331 335 334 331 331 332 331 331 333 334 336
89 86 120 127 120 106 89 77 93 115 111 97 90 113 131 131 127 127 128 130 135 143 148 154 160 164 169 181 198 213 223 233 244 256 267 279 285 282 276 273 271 266 264 275 292 297 288 281 280 274 268 269 274 278 278 274 272 277 282 282 282 287 293 300 309 318 325 330 334 336 338 337 333 331 332 333 335 336 335 335 337 336 334 335 338 338 339
100 96 108 113 108 102 95 85 84 99 113 115 110 113 125 131 131 131 131 133 141 153 158 159 163 168 176 194 216 233 244 252 263 273 279 283 284 279 274 271 271 272 278 287 292 288 280 276 274 268 265 270 276 276 273 271 274 278 280 279 280 284 289 296 305 314 321 325 328 332 335 336 332 329 329 332 335 337 339 341 342 339 338 339 341 342 343
122 119 120 115 109 107 101 89 81 88 109 125 128 130 135 138 135 133 133 136 145 160 164 164 172 184 197 216 236 259 280 289 287 287 289 287 286 286 283 281 282 289 298 298 287 276 269 265 261 267 278 284 280 274 269 270 277 282 279 277 279 281 287 295 303 309 314 319 323 326 329 330 328 326 327 331 335 339 342 344 344 342 341 342 343 344 345
120 122 120 115 111 110 108 104 99 96 102 116 127 133 138 140 136 133 135 141 149 159 167 175 192 216 236 252 266 282 291 290 287 289 287 283 282 280 278 282 291 306 318 305 281 259 245 251 271 289 295 290 276 269 269 273 281 283 278 275 278 281 286 294 302 306 309 313 316 319 323 324 321 322 327 331 334 339 343 344 344 343 342 341 342 344 346
123 124 119 112 111 113 113 112 110 105 104 113 122 125 129 132 131 131 138 147 154 163 177 194 221 253 271 280 283 285 286 286 287 287 282 278 274 264 262 280 296 307 309 296 278 248 244 266 286 294 293 284 271 267 270 275 281 283 279 274 276 281 287 294 300 301 302 306 310 313 315 314 313 317 323 327 331 338 342 342 342 342 342 342 343 344 346
126 126 120 116 119 120 119 120 120 117 114 118 124 127 128 130 132 134 141 151 158 167 190 221 245 262 272 274 274 276 279 284 289 289 287 287 284 272 268 280 294 299 290 279 265 250 255 272 284 287 284 276 267 266 272 277 279 281 279 276 277 281 286 292 296 298 298 302 308 311 310 307 308 312 317 321 326 334 339 338 338 338 338 339 341 343 345
126 126 124 125 126 126 125 126 127 126 125 128 133 134 131 131 137 144 147 153 161 178 221 255 263 269 272 266 261 266 276 287 293 293 295 300 301 294 285 287 297 302 295 282 270 263 269 279 282 280 275 268 263 267 275 278 278 279 279 278 280 284 287 289 292 293 295 301 307 308 306 305 307 309 313 318 323 328 331 332 333 333 333 334 336 339 342
119 123 126 128 127 128 132 134 133 134 136 136 135 136 138 142 151 158 155 156 170 203 253 271 276 279 278 272 269 275 285 293 294 287 278 278 287 295 303 313 312 304 297 295 294 293 293 291 284 276 269 265 266 270 274 275 277 280 280 279 279 282 285 288 289 289 291 296 299 300 300 302 305 306 309 313 317 321 324 325 326 327 327 328 331 335 338
116 120 124 125 124 124 128 131 130 131 133 131 125 126 140 147 149 147 146 157 216 259 276 281 284 288 288 287 289 294 298 300 299 290 276 266 268 276 287 296 296 290 284 284 287 292 294 290 281 273 267 266 267 270 272 275 277 278 278 279 281 281 281 282 284 285 287 290 292 293 295 297 300 303 305 307 310 314 316 317 317 318 321 322 325 328 331
117 119 121 123 123 123 126 128 128 127 128 128 126 130 136 139 139 136 130 101 316 310 301 293 294 299 300 296 296 296 296 301 309 310 296 273 273 286 299 304 301 295 289 284 284 287 289 285 276 269 267 267 266 267 271 274 275 275 276 278 279 279 279 279 280 282 284 285 286 288 291 293 296 298 300 301 304 308 310 310 310 312 315 317 319 321 324
126 128 128 128 128 128 131 132 128 125 126 130 130 129 130 131 129 121 107 89 354 320 308 298 298 301 299 292 292 294 290 288 295 311 335 330 311 309 309 305 301 297 292 288 285 284 283 278 273 270 270 269 268 269 271 273 274 275 275 276 275 276 277 278 279 281 283 284 284 287 289 290 293 295 295 297 300 303 304 305 306 308 310 312 314 316 318
130 131 131 132 135 139 141 138 132 132 137 134 126 123 123 120 113 113 113 102 319 305 299 296 300 300 291 278 282 293 289 275 272 284 303 311 308 305 303 301 298 294 288 284 282 280 275 271 270 272 271 271 271 272 272 274 275 275 275 275 274 274 275 278 280 281 282 283 285 287 288 289 291 293 293 295 298 300 301 302 304 306 308 309 310 312 314
131 134 138 144 149 150 146 139 135 140 141 132 122 122 127 113 100 98 83 354 323 309 303 303 300 292 276 262 266 280 288 286 288 295 301 304 304 304 304 302 299 294 290 286 283 280 275 271 271 272 272 272 273 275 275 277 279 278 277 277 277 277 278 279 280 279 280 282 283 284 285 286 288 290 291 294 297 299 300 301 302 303 305 307 307 309 311
143 145 146 148 149 146 139 128 130 141 142 133 128 137 141 118 59 8 341 330 316 311 316 318 316 304 274 272 268 263 270 286 295 299 300 299 298 298 298 295 291 290 289 287 284 281 279 277 276 276 275 274 275 278 279 280 280 280 281 281 282 282 282 281 280 280 281 282 282 281 282 283 285 286 288 291 294 295 297 298 300 301 303 305 306 307 309
142 141 136 132 133 137 135 132 140 151 154 152 158 162 158 124 310 309 321 320 301 301 309 310 308 311 316 299 281 283 290 295 297 300 301 297 291 289 289 290 290 290 288 286 284 284 282 281 280 279 278 277 277 279 279 279 280 281 283 285 286 286 285 284 284 284 283 282 280 281 282 283 284 286 287 289 290 291 292 293 295 297 299 301 303 305 307